Regional Weather Roundup
Issued by NWS

Home | Current Version | Previous Version | Text Only | Print | Product List | Glossary Off
Versions: 1 2 3 4 5 6 7 8 9 10 11 12 13 14 15 16 17 18 19 20 21 22 23 24 25 26 27 28 29 30 31 32 33 34 35 36 37 38 39 40 41 42 43 44 45 46 47 48 49 50

000
ASUS43 KMKX 281721
RWRWI

WISCONSIN REGIONAL WEATHER ROUNDUP
NATIONAL WEATHER SERVICE MILWAUKEE/SULLIVAN WI
1200 PM CDT TUE JUL 28 2015

NOTE: "FAIR" INDICATES FEW OR NO CLOUDS BELOW 12,000 FEET WITH NO
SIGNIFICANT WEATHER AND/OR OBSTRUCTIONS TO VISIBILITY.

WIZ001-002-006>008-014>016-023>028-281800-
NORTHWEST WISCONSIN

CITY           SKY/WX    TMP DP  RH WIND       PRES   REMARKS
SUPERIOR ARPT  CLOUDY    80  71  73 SW15G24   29.76R HX  83
ASHLAND        CLOUDY    78  69  73 S10G20    29.79R HX  80
HAYWARD        CLOUDY    76  68  76 S15G25    29.82R
SIREN          CLOUDY    80  68  65 S14G23    29.81R HX  82
CUMBERLAND     CLOUDY    75  68  78 S12       29.85R
RICE LAKE      CLOUDY    76  69  80 S12G18    29.86R
CHETEK         CLOUDY    76  70  81 S14G21    29.85R
LADYSMITH      CLOUDY    77  69  75 S16G25    29.88R
EAU CLAIRE     CLOUDY    76  68  76 S14       29.82S
MENOMONIE      CLOUDY    76  71  82 S10       29.85R
NEW RICHMOND   CLOUDY    77  70  79 S17       29.84S
OSCEOLA        CLOUDY    79  69  71 S12G21    29.85R HX  81
$$

WIZ003>005-009-010-017-018-281800-
NORTH CENTRAL WISCONSIN

CITY           SKY/WX    TMP DP  RH WIND       PRES   REMARKS
MANITOWISH WTR CLOUDY    73  66  78 S13G24    29.90F
ARBOR VITAE    CLOUDY    74  66  74 S18G24    29.91F
WOODRUFF       CLOUDY    74  66  74 S18G24    29.91F
RHINELANDER    CLOUDY    75  63  66 S13G20    29.96F
EAGLE RIVER    CLOUDY    74  60  63 S9G17     29.95F
LAND O LAKES   CLOUDY    75  62  62 S10G20    29.95F
PHILLIPS       CLOUDY    76  68  76 S9        29.87F
TOMAHAWK       CLOUDY    73  64  73 S3        29.93F
MEDFORD        CLOUDY    72  67  82 SE13G24   29.88F
MERRILL        NOT AVBL
$$

WIZ029-030-035-036-043>047-281800-
CENTRAL WISCONSIN

CITY           SKY/WX    TMP DP  RH WIND       PRES   REMARKS
WAUSAU         CLOUDY    78  65  63 S13       29.92F HX  80
MOSINEE        PTSUNNY   75  66  73 S10       29.98F
MARSHFIELD     LGT RAIN  73  66  78 S14       29.94F
STEVENS POINT  CLOUDY    76  64  67 S8        29.98F
WAUPACA        CLOUDY    83  65  53 S9        29.99F HX  85
WAUTOMA        CLOUDY    85  65  51 S8        29.98F HX  86
WISC RAPIDS    LGT RAIN  76  66  71 S6        29.99F
CAMP DOUGLAS   CLOUDY    73  73 100 S3        29.98S
$$

WIZ011>013-019>022-031-037>040-048>050-281800-
NORTHEAST WISCONSIN

CITY           SKY/WX    TMP DP  RH WIND       PRES   REMARKS
ANTIGO         CLOUDY    76  65  69 S13       30.00F
SHAWANO        CLOUDY    83  63  51 S8        29.99F HX  84
OCONTO         PTSUNNY   82  67  61 S7        29.99F HX  84
STURGEON BAY   CLOUDY    84  63  48 S17       30.02F HX  85
GREEN BAY      PTSUNNY   83  62  49 S10       30.00F HX  84
MANITOWOC      PTSUNNY   83  66  56 MISG      30.01F HX  85
APPLETON       PTSUNNY   82  61  47 S10       30.01F HX  83
CLINTONVILLE   CLOUDY    82  63  51 S10       29.98F HX  83
OSHKOSH        PTSUNNY   83  64  52 S9        29.99F HX  84
$$

WIZ032>034-041-042-053>061-281800-
SOUTHWEST WISCONSIN

CITY           SKY/WX    TMP DP  RH WIND       PRES   REMARKS
LA CROSSE      LGT RAIN  72  70  93 SE10G18   29.86F FOG
SPARTA         LGT RAIN  71  68  93 SE3       29.95F
VIROQUA        CLOUDY    71  71 100 CALM      29.99F
BOSCOBEL       CLOUDY    78  72  81 SE3       29.95F HX  80
PRAIRIE DU CHI HVY RAIN  74  70  86 NE3       29.95R
PLATTEVILLE    CLOUDY    78  74  85 S12       29.99S HX  81
$$

WIZ056-057-062-063-064-067-068-281800-
SOUTH CENTRAL WISCONSIN

CITY           SKY/WX    TMP DP  RH WIND       PRES   REMARKS
REEDSBURG      CLOUDY    79  70  73 S5        29.98R HX  82
BARABOO/DELLS  CLOUDY    81  66  60 S10       29.99R HX  83
LONE ROCK      CLOUDY    79  71  76 CALM      29.98S HX  82
MINERAL POINT  CLOUDY    81  72  74 S8        30.00S HX  84
MADISON        PTSUNNY   83  68  60 S13       29.97F HX  86
MIDDLETON      PTSUNNY   83  68  60 SW10      30.00S HX  86
WATERTOWN      MOSUNNY   83  68  60 SE3       29.99F HX  86
MONROE         PTSUNNY   81  70  69 S7        30.00R HX  84
JANESVILLE     MOSUNNY   86  66  51 S6        29.99S HX  88
$$

WIZ051-052-058>065-066-070>072-281800-
SOUTHEAST WISCONSIN

CITY           SKY/WX    TMP DP  RH WIND       PRES   REMARKS
MILWAUKEE      PTSUNNY   86  64  47 SE12      30.00F HX  87
WAUKESHA       SUNNY     82  63  51 SE7       30.01F HX  83
MILWAUKEE/TIMM SUNNY     84  57  39 SE5       30.01F HX  83
RACINE         PTSUNNY   83  68  60 SE9       30.02F HX  86
BURLINGTON     MOSUNNY   84  66  54 S3        30.00S HX  86
KENOSHA        PTSUNNY   85  66  53 SE10      30.01S HX  87
FOND DU LAC    PTSUNNY   84  65  52 S8        29.99F HX  86
SHEBOYGAN      PTSUNNY   85  62  46 S12       30.01F HX  85
WEST BEND      MOSUNNY   86  59  39 CALM      30.00F HX  85
JUNEAU         PTSUNNY   82  65  56 S8        30.01F HX  84
$$

LSZ147-162-281800-
LAKE SUPERIOR

STATION/POSITION TIME  TEMP    WIND        PRES    WAVE
                       AIR SEA DIR/SP/G            HT/PER
                 (UTC) (F)     (DEG/KT/KT) (MB)    (FT/S)
W MID LAKE BUOY  1650   67 62  120/ 14/ 16 1010.1F   1/ 3
DEVILS ISLAND    1700   75     160/  6/ 11 1008.5R
SAXON HARBOR     1600   79                 1008.5F
$$

LMZ867-665-643>646-281800-
LAKE MICHIGAN

STATION/POSITION TIME  TEMP    WIND        PRES    WAVE
                       AIR SEA DIR/SP/G            HT/PER
                 (UTC) (F)     (DEG/KT/KT) (MB)    (FT/S)
CHAMBERS ISLAND  1600   80     200/  6/  9 1015.9S
S GREEN BAY BUOY 1700   79 76  200/  8/ 10 1017.1F
N MID LAKE BUOY  1650   72 71  220/  6/  8 1016.2R   0
NORTHPORT PIER   1600   75     140/  9/ 11 1015.9F
SISTER BAY       1614   83     190/ 13/ 15   N/A
ALGOMA LAKESHORE 1612          210/  5/  6   N/A
KEWAUNEE LAKESHO 1600   69     170/  9/ 10 1016.1R
SHEBOYGAN LAKESH 1700   72     140/ 11/ 12 1016.4F
PORT WASHINGTON  1640   77     100/  3/  4 1016.9F
ATWATER BUOY     1700   71     120/ 10/ 12 1017.4F
MILWAUKEE LAKESH 1700   71     110/ 11/ 11   N/A
KENOSHA   LAKESH 1700   77     130/  5/  6 1015.6F
$$

TC  - TEMPERATURE IN CELSIUS
VSB - VISIBILITY IN STATUTE MILES
WCI - WIND CHILL INDEX
HX  - HEAT INDEX




USA.gov is the U.S. government's official web portal to all federal, state and local government web resources and services.